Weather History for Hot Springs, VA

Change the Weather History Date:

Wednesday, February 6, 2013

  Actual Average Record
Temperature  
Mean Temperature 30 °F -  
Max Temperature 35 °F 35 °F 59 °F (2008)
Min Temperature 26 °F 21 °F -2 °F (2007)
Degree Days  
Heating Degree Days 34    
Moisture  
Dew Point 25 °F    
Average Humidity 79    
Maximum Humidity 100    
Minimum Humidity 56    
Precipitation  
Precipitation 0.00 in - - ()
Sea Level Pressure  
Sea Level Pressure 30.07 in    
Wind  
Wind Speed 15 mph (West)    
Max Wind Speed 30 mph    
Max Gust Speed 40 mph    
Visibility 10 miles    
Events      
Averages and records for this station are not official NWS values.
T = Trace of Precipitation, MM = Missing Value Source: NWS Daily Summary

Daily Weather History Graph

Daily Weather History Graph

Search for Another Location

Airport:

Trip Planner

Search our weather history database for the weather conditions in past years. The results will help you decide how hot, cold, wet, or windy it might be!

Date:

Astronomy

Feb. 06, 2013 Rise Set
Actual Time 7:18 AM EST 5:48 PM EST
Civil Twilight 6:51 AM EST 6:15 PM EST
Nautical Twilight 6:20 AM EST 6:47 PM EST
Astronomical Twilight 5:49 AM EST 7:17 PM EST
Moon 3:59 AM EST (2/6) 2:07 PM EST (2/6)
Length of Visible Light 11h 24m
Length of Day
10h 29m
Waning Crescent, 17% of the Moon is Illuminated
Feb 6
Waning Crescent
Feb 10
New
Feb 17
First Quarter
Feb 25
Full
Mar 4
Last Quarter

Hourly Weather History & Observations

Time (EST) Temp. Windchill Dew Point Humidity Pressure Visibility Wind Dir Wind Speed Gust Speed Precip Events Conditions
12:15 AM 33.8 °F 23.9 °F 30.2 °F 87% 29.88 in 10.0 mi West 15.0 mph - N/A   Overcast
12:35 AM 33.8 °F 22.5 °F 30.2 °F 87% 29.87 in 10.0 mi West 19.6 mph 26.5 mph N/A   Overcast
12:55 AM 33.8 °F 23.2 °F 30.2 °F 87% 29.87 in 10.0 mi West 17.3 mph 23.0 mph N/A   Overcast
1:15 AM 33.8 °F 21.9 °F 30.2 °F 87% 29.87 in 10.0 mi West 21.9 mph 28.8 mph N/A   Overcast
1:35 AM 33.8 °F 23.2 °F 30.2 °F 87% 29.88 in 10.0 mi West 17.3 mph 27.6 mph N/A   Overcast
1:55 AM 33.8 °F 22.2 °F 30.2 °F 87% 29.88 in 10.0 mi West 20.7 mph 27.6 mph N/A   Overcast
2:15 AM 33.8 °F 22.8 °F 28.4 °F 81% 29.88 in 10.0 mi West 18.4 mph 28.8 mph N/A   Overcast
2:35 AM 33.8 °F 22.2 °F 28.4 °F 81% 29.89 in 10.0 mi West 20.7 mph 28.8 mph N/A   Overcast
2:55 AM 32.0 °F 19.2 °F 28.4 °F 87% 29.89 in 10.0 mi West 23.0 mph 32.2 mph N/A   Overcast
3:15 AM 32.0 °F 19.2 °F 28.4 °F 87% 29.89 in 10.0 mi WNW 23.0 mph 32.2 mph N/A   Overcast
3:35 AM 32.0 °F 20.8 °F 28.4 °F 87% 29.90 in 10.0 mi WNW 17.3 mph 33.4 mph N/A   Overcast
3:55 AM 30.2 °F 16.8 °F 28.4 °F 93% 29.90 in 10.0 mi West 23.0 mph 34.5 mph N/A   Overcast
4:15 AM 30.2 °F 16.5 °F 26.6 °F 86% 29.90 in 10.0 mi WNW 24.2 mph 40.3 mph N/A   Overcast
4:35 AM 30.2 °F 15.2 °F 26.6 °F 86% 29.91 in 10.0 mi West 29.9 mph 39.1 mph N/A   Overcast
4:55 AM 30.2 °F 16.2 °F 26.6 °F 86% 29.92 in 10.0 mi West 25.3 mph 34.5 mph N/A   Overcast
5:15 AM 30.2 °F 16.2 °F 26.6 °F 86% 29.93 in 10.0 mi West 25.3 mph 35.7 mph N/A   Overcast
5:35 AM 28.4 °F 15.4 °F 26.6 °F 93% 29.94 in 10.0 mi West 19.6 mph 35.7 mph N/A   Overcast
5:55 AM 28.4 °F 16.2 °F 26.6 °F 93% 29.95 in 10.0 mi West 17.3 mph 27.6 mph N/A   Overcast
6:15 AM 26.6 °F 13.4 °F 24.8 °F 93% 29.97 in 10.0 mi West 18.4 mph 24.2 mph N/A   Overcast
6:35 AM 26.6 °F 13.8 °F 24.8 °F 93% 29.98 in 10.0 mi West 17.3 mph 26.5 mph N/A   Overcast
6:55 AM 26.6 °F 14.7 °F 24.8 °F 93% 29.99 in 10.0 mi WNW 15.0 mph 25.3 mph N/A   Overcast
7:15 AM 26.6 °F 14.3 °F 24.8 °F 93% 30.01 in 10.0 mi West 16.1 mph 23.0 mph N/A   Overcast
7:35 AM 26.6 °F 14.3 °F 24.8 °F 93% 30.02 in 10.0 mi West 16.1 mph 21.9 mph N/A   Overcast
7:55 AM 26.6 °F 14.3 °F 26.6 °F 100% 30.03 in 10.0 mi West 16.1 mph 20.7 mph N/A   Overcast
8:15 AM 26.6 °F 14.3 °F 26.6 °F 100% 30.04 in 10.0 mi WNW 16.1 mph 23.0 mph N/A   Overcast
8:35 AM 26.6 °F 13.1 °F 26.6 °F 100% 30.05 in 10.0 mi West 19.6 mph 27.6 mph N/A   Overcast
8:55 AM 26.6 °F 14.3 °F 24.8 °F 93% 30.05 in 10.0 mi West 16.1 mph 23.0 mph N/A   Overcast
9:15 AM 26.6 °F 14.7 °F 24.8 °F 93% 30.06 in 10.0 mi WNW 15.0 mph 23.0 mph N/A   Overcast
9:55 AM 26.6 °F 18.2 °F 24.8 °F 93% 30.08 in 10.0 mi WNW 8.1 mph 16.1 mph N/A   Overcast
10:15 AM 26.6 °F 17.5 °F 24.8 °F 93% 30.09 in 10.0 mi WNW 9.2 mph - N/A   Overcast
10:35 AM 28.4 °F 19.7 °F 24.8 °F 86% 30.10 in 10.0 mi West 9.2 mph - N/A   Overcast
10:55 AM 28.4 °F 22.2 °F 24.8 °F 86% 30.11 in 10.0 mi West 5.8 mph - N/A   Overcast
11:15 AM 28.4 °F 22.2 °F 24.8 °F 86% 30.12 in 10.0 mi West 5.8 mph - N/A   Overcast
11:35 AM 28.4 °F 19.7 °F 24.8 °F 86% 30.13 in 10.0 mi West 9.2 mph - N/A   Overcast
11:55 AM 28.4 °F 18.5 °F 23.0 °F 80% 30.13 in 10.0 mi West 11.5 mph - N/A   Overcast
12:15 PM 30.2 °F 21.3 °F 24.8 °F 80% 30.13 in 10.0 mi West 10.4 mph - N/A   Mostly Cloudy
12:35 PM 30.2 °F 20.8 °F 24.8 °F 80% 30.13 in 10.0 mi West 11.5 mph - N/A   Mostly Cloudy
12:55 PM 30.2 °F 21.3 °F 23.0 °F 75% 30.12 in 10.0 mi West 10.4 mph 16.1 mph N/A   Mostly Cloudy
1:15 PM 32.0 °F 24.8 °F 24.8 °F 75% 30.12 in 10.0 mi West 8.1 mph - N/A   Scattered Clouds
1:35 PM 33.8 °F 25.8 °F 23.0 °F 65% 30.12 in 10.0 mi WNW 10.4 mph - N/A   Clear
1:55 PM 33.8 °F 27.0 °F 23.0 °F 65% 30.12 in 10.0 mi WNW 8.1 mph - N/A   Clear
2:15 PM 33.8 °F 26.4 °F 24.8 °F 70% 30.13 in 10.0 mi West 9.2 mph - N/A   Clear
2:35 PM 33.8 °F 28.6 °F 24.8 °F 70% 30.14 in 10.0 mi WNW 5.8 mph - N/A   Clear
2:55 PM 35.6 °F 27.1 °F 23.0 °F 60% 30.14 in 10.0 mi West 12.7 mph - N/A   Clear
3:15 PM 35.6 °F 28.0 °F 23.0 °F 60% 30.14 in 10.0 mi West 10.4 mph 16.1 mph N/A   Clear
3:35 PM 35.6 °F 29.2 °F 23.0 °F 60% 30.14 in 10.0 mi WNW 8.1 mph - N/A   Clear
3:55 PM 35.6 °F 28.0 °F 23.0 °F 60% 30.14 in 10.0 mi West 10.4 mph 16.1 mph N/A   Clear
4:35 PM 35.6 °F 28.6 °F 21.2 °F 56% 30.14 in 10.0 mi West 9.2 mph - N/A   Clear
4:55 PM 35.6 °F 28.0 °F 21.2 °F 56% 30.15 in 10.0 mi West 10.4 mph - N/A   Clear
5:15 PM 33.8 °F 25.8 °F 21.2 °F 60% 30.16 in 10.0 mi West 10.4 mph - N/A   Clear
5:35 PM 33.8 °F 26.4 °F 21.2 °F 60% 30.16 in 10.0 mi West 9.2 mph - N/A   Clear
5:55 PM 32.0 °F 24.8 °F 21.2 °F 64% 30.17 in 10.0 mi West 8.1 mph - N/A   Clear
6:15 PM 30.2 °F 22.6 °F 21.2 °F 69% 30.18 in 10.0 mi West 8.1 mph - N/A   Clear
6:35 PM 30.2 °F 24.3 °F 21.2 °F 69% 30.18 in 10.0 mi WNW 5.8 mph - N/A   Clear
6:55 PM 30.2 °F 23.4 °F 21.2 °F 69% 30.20 in 10.0 mi West 6.9 mph - N/A   Clear
7:15 PM 30.2 °F 23.4 °F 21.2 °F 69% 30.20 in 10.0 mi West 6.9 mph - N/A   Clear
7:35 PM 30.2 °F 24.3 °F 21.2 °F 69% 30.20 in 10.0 mi West 5.8 mph - N/A   Clear
7:55 PM 30.2 °F 25.4 °F 21.2 °F 69% 30.20 in 10.0 mi WNW 4.6 mph - N/A   Clear
8:15 PM 28.4 °F 22.2 °F 21.2 °F 74% 30.21 in 10.0 mi West 5.8 mph - N/A   Clear
8:35 PM 30.2 °F 23.4 °F 21.2 °F 69% 30.21 in 10.0 mi West 6.9 mph - N/A   Clear
8:55 PM 30.2 °F 24.3 °F 21.2 °F 69% 30.21 in 10.0 mi West 5.8 mph - N/A   Clear
9:15 PM 30.2 °F 26.7 °F 21.2 °F 69% 30.21 in 10.0 mi SW 3.5 mph - N/A   Clear
9:55 PM 30.2 °F - 21.2 °F 69% 30.20 in 10.0 mi Calm Calm - N/A   Clear
10:15 PM 32.0 °F 28.7 °F 21.2 °F 64% 30.19 in 10.0 mi SSW 3.5 mph - N/A   Clear
10:35 PM 32.0 °F 27.5 °F 21.2 °F 64% 30.19 in 10.0 mi South 4.6 mph - N/A   Clear
10:55 PM 32.0 °F 27.5 °F 21.2 °F 64% 30.20 in 10.0 mi South 4.6 mph - N/A   Clear
11:35 PM 32.0 °F 28.7 °F 23.0 °F 69% 30.21 in 10.0 mi SW 3.5 mph - N/A   Clear
11:55 PM 32.0 °F 25.6 °F 23.0 °F 69% 30.24 in 10.0 mi SSW 6.9 mph - N/A   Clear